Showing default

OPS 3662 (VELA 3), 836

Orbit data source: Space-Track

OPS 3662 (VELA 3), 836 is a payload satellite owned by USAF SSD (US) in HEO that was launched on Fri, 17 Jul 1964 UTC via an ATLAS AGENA D launch vehicle from the Air Force Eastern Test Range (AFETR). Payload-class satellites include a variety of spacecraft equipped with specific instruments for various scientific and technological missions. These include communications satellites like Starlink; space stations such as the ISS; scientific satellites like the Hubble; Earth observation satellites from companies like Planet Labs, Umbra, and HawkEye 360; GPS; miniature CubeSats for education and research; and military/defense satellites.

Loading next visibility...
Identifier
836, 1964-040A
Orbit
HEO
Country
Flag of USUS
Related business
Manufacturer
TRW
Mission
Defense Early Warn
Bus & Motor
VELA, BE-3
Mass
~227 kg wet, 125 kg dry
Launch date (UTC)
1964-07-17 (61 years ago)
Launch vehicle
ATLAS AGENA D
Launch site
Air Force Eastern Test Range (AFETR)
Object type
Payload
Rocket body
Debris
Shape & HBR
Poly, 0.7 m
Radar Cross Section
2.240 m², Medium (>0.1 m² and < 1m²)

Expand to show TLE details & history
Last TLE update: in 4 days

TLE from in 4 days
0 OPS 3662 (VELA 3)
1 00836U 64040A   25265.19276825  .00000451  00000-0  00000-0 0  9991
2 00836  51.6703 124.2302 4692705 286.4494   0.6682  0.23919196 10356
Epoch: 2025-09-22T04:37Z
TLE epoch observation values (Epoch: 2025-09-22T04:37:35.176Z)
Latitude
-48.23758°
Longitude
-8.62872°
Altitude
51,755.209 km
Speed
3.175 km/s
True Right ascension
04h 08m 16s
True Declination
-48° 12' 60"
Sunlit
Object was in daylight at epoch
Visualization orbit readout
Latitude
Unknown
Longitude
Unknown
Altitude
Unknown
Speed
Unknown
Apparent Right ascension
Unknown
Apparent Declination
Unknown
Sunlit
N/A
Visualization observer readout
Local Sidereal Time
22:24:38
Azimuth
Unknown
Elevation
Unknown
Doppler factor
Unknown
Orbital elements
Apogee altitude
154,688.773 km
Perigee altitude
51,802.409 km
Semi-major axis
109,623.728 km
Eccentricity
0.46927
Inclination
51.6703°
RAAN
124.2302°
Arg. of periapsis
286.4494°
True anomaly
2.09453°
Mean anomaly
0.6682°
Eccentric anomaly
1.25893°
Mean motion
0.0598 °/min
Orbital period
6,020.27 mins
BSTAR
0
Loading maneuver chart data...
Computing Atmospheric mass density...
Loading historical data...
Loading historical data...
Loading historical data...
Loading historical data...
Loading historical data...
Loading historical data...
Loading historical data...
Other satellites on launch #40 in the year 1964 (1964-07-17 UTC)

Documentation

Showing up to 5 results
|